Time,TemperatureF,DewpointF,PressureIn,WindDirection,WindDirectionDegrees,WindSpeedMPH,WindSpeedGustMPH,Humidity,HourlyPrecipIn,Conditions,Clouds,dailyrainin,SoftwareType,DateUTC
2013-11-27 00:00:00,48.0,46.6,30.61,West,274,1.0,2.0,95,0.00,,,0.00,WeatherCatV1.23B16,2013-11-27 00:00:00,
2013-11-27 00:05:00,48.1,46.7,30.61,WSW,252,2.0,4.0,95,0.00,,,0.00,WeatherCatV1.23B16,2013-11-27 00:05:00,
2013-11-27 00:10:00,48.2,46.5,30.61,WSW,255,2.0,3.0,94,0.00,,,0.00,WeatherCatV1.23B16,2013-11-27 00:10:00,
2013-11-27 00:15:00,48.3,46.7,30.61,WSW,253,1.0,3.0,94,0.00,,,0.00,WeatherCatV1.23B16,2013-11-27 00:15:00,
2013-11-27 00:20:00,48.2,46.5,30.61,West,266,1.0,2.0,94,0.00,,,0.00,WeatherCatV1.23B16,2013-11-27 00:20:00,
2013-11-27 00:25:00,48.3,46.7,30.61,West,270,3.0,4.0,94,0.00,,,0.00,WeatherCatV1.23B16,2013-11-27 00:25:00,
2013-11-27 00:30:00,48.4,46.5,30.60,West,281,2.0,4.0,93,0.00,,,0.00,WeatherCatV1.23B16,2013-11-27 00:30:00,
2013-11-27 00:35:00,48.4,46.5,30.60,WNW,283,2.0,3.0,93,0.00,,,0.00,WeatherCatV1.23B16,2013-11-27 00:35:00,
2013-11-27 00:40:00,48.4,46.5,30.60,West,277,1.0,2.0,93,0.00,,,0.00,WeatherCatV1.23B16,2013-11-27 00:40:00,
2013-11-27 00:45:00,48.3,46.1,30.60,WNW,285,2.0,3.0,92,0.00,,,0.00,WeatherCatV1.23B16,2013-11-27 00:45:00,
2013-11-27 00:50:00,48.3,46.1,30.60,West,281,2.0,3.0,92,0.00,,,0.00,WeatherCatV1.23B16,2013-11-27 00:50:00,
2013-11-27 00:55:00,48.3,46.1,30.60,West,266,1.0,1.0,92,0.00,,,0.00,WeatherCatV1.23B16,2013-11-27 00:55:00,
2013-11-27 01:00:00,48.2,46.0,30.60,West,269,1.0,1.0,92,0.00,,,0.00,WeatherCatV1.23B16,2013-11-27 01:00:00,
2013-11-27 01:05:00,48.2,45.7,30.60,West,274,1.0,2.0,91,0.00,,,0.00,WeatherCatV1.23B16,2013-11-27 01:05:00,
2013-11-27 01:10:00,48.2,45.7,30.60,West,278,1.0,2.0,91,0.00,,,0.00,WeatherCatV1.23B16,2013-11-27 01:10:00,
2013-11-27 01:15:00,48.2,45.4,30.60,West,271,2.0,3.0,90,0.00,,,0.00,WeatherCatV1.23B16,2013-11-27 01:15:00,
2013-11-27 01:20:00,48.2,45.4,30.59,West,261,3.0,4.0,90,0.00,,,0.00,WeatherCatV1.23B16,2013-11-27 01:20:00,
2013-11-27 01:25:00,48.2,45.1,30.59,West,263,3.0,4.0,89,0.00,,,0.00,WeatherCatV1.23B16,2013-11-27 01:25:00,
2013-11-27 01:30:00,48.3,45.2,30.59,WSW,255,4.0,4.0,89,0.00,,,0.00,WeatherCatV1.23B16,2013-11-27 01:30:00,
2013-11-27 01:35:00,48.3,45.2,30.59,WNW,282,3.0,4.0,89,0.00,,,0.00,WeatherCatV1.23B16,2013-11-27 01:35:00,
2013-11-27 01:40:00,48.3,45.2,30.59,WNW,288,2.0,4.0,89,0.00,,,0.00,WeatherCatV1.23B16,2013-11-27 01:40:00,
2013-11-27 01:45:00,48.2,45.1,30.59,West,271,4.0,4.0,89,0.00,,,0.00,WeatherCatV1.23B16,2013-11-27 01:45:00,
2013-11-27 01:50:00,48.2,45.1,30.59,West,277,1.0,3.0,89,0.00,,,0.00,WeatherCatV1.23B16,2013-11-27 01:50:00,
2013-11-27 01:55:00,48.1,45.0,30.59,West,268,2.0,2.0,89,0.00,,,0.00,WeatherCatV1.23B16,2013-11-27 01:55:00,
2013-11-27 02:00:00,48.0,44.9,30.59,WNW,288,3.0,4.0,89,0.00,,,0.00,WeatherCatV1.23B16,2013-11-27 02:00:00,
2013-11-27 02:05:00,48.1,45.0,30.59,West,266,2.0,3.0,89,0.00,,,0.00,WeatherCatV1.23B16,2013-11-27 02:05:00,
2013-11-27 02:10:00,48.1,45.3,30.58,WNW,287,4.0,6.0,90,0.00,,,0.00,WeatherCatV1.23B16,2013-11-27 02:10:00,
2013-11-27 02:15:00,48.1,45.3,30.58,WNW,291,1.0,4.0,90,0.00,,,0.00,WeatherCatV1.23B16,2013-11-27 02:15:00,
2013-11-27 02:20:00,48.1,45.3,30.58,WSW,257,3.0,3.0,90,0.00,,,0.00,WeatherCatV1.23B16,2013-11-27 02:20:00,
2013-11-27 02:25:00,48.2,45.4,30.58,West,277,1.0,5.0,90,0.00,,,0.00,WeatherCatV1.23B16,2013-11-27 02:25:00,
2013-11-27 02:30:00,48.3,45.5,30.58,WSW,242,2.0,3.0,90,0.00,,,0.00,WeatherCatV1.23B16,2013-11-27 02:30:00,
2013-11-27 02:35:00,48.3,45.5,30.58,WSW,257,5.0,5.0,90,0.00,,,0.00,WeatherCatV1.23B16,2013-11-27 02:35:00,
2013-11-27 02:40:00,48.2,45.4,30.58,West,274,4.0,6.0,90,0.00,,,0.00,WeatherCatV1.23B16,2013-11-27 02:40:00,
2013-11-27 02:45:00,48.2,45.4,30.58,West,267,3.0,5.0,90,0.00,,,0.00,WeatherCatV1.23B16,2013-11-27 02:45:00,
2013-11-27 02:50:00,48.2,45.7,30.58,West,259,3.0,4.0,91,0.00,,,0.00,WeatherCatV1.23B16,2013-11-27 02:50:00,
2013-11-27 02:55:00,48.2,45.7,30.58,SW,225,3.0,4.0,91,0.00,,,0.00,WeatherCatV1.23B16,2013-11-27 02:55:00,
2013-11-27 03:00:00,48.2,45.7,30.58,WSW,252,2.0,4.0,91,0.00,,,0.00,WeatherCatV1.23B16,2013-11-27 03:00:00,
2013-11-27 03:05:00,48.3,45.8,30.58,West,269,2.0,4.0,91,0.00,,,0.00,WeatherCatV1.23B16,2013-11-27 03:05:00,
2013-11-27 03:10:00,48.2,45.7,30.58,WSW,252,3.0,4.0,91,0.00,,,0.00,WeatherCatV1.23B16,2013-11-27 03:10:00,
2013-11-27 03:15:00,48.2,45.7,30.58,WNW,288,1.0,3.0,91,0.00,,,0.00,WeatherCatV1.23B16,2013-11-27 03:15:00,
2013-11-27 03:20:00,48.2,45.7,30.57,WNW,283,2.0,3.0,91,0.00,,,0.00,WeatherCatV1.23B16,2013-11-27 03:20:00,
2013-11-27 03:25:00,48.1,45.6,30.57,WSW,240,2.0,2.0,91,0.00,,,0.00,WeatherCatV1.23B16,2013-11-27 03:25:00,
2013-11-27 03:30:00,48.1,45.6,30.58,WSW,253,4.0,5.0,91,0.00,,,0.00,WeatherCatV1.23B16,2013-11-27 03:30:00,
2013-11-27 03:35:00,48.1,45.6,30.58,WSW,250,2.0,3.0,91,0.00,,,0.00,WeatherCatV1.23B16,2013-11-27 03:35:00,
2013-11-27 03:40:00,48.1,45.6,30.58,WSW,256,3.0,3.0,91,0.00,,,0.00,WeatherCatV1.23B16,2013-11-27 03:40:00,
2013-11-27 03:46:00,48.1,45.6,30.57,WSW,250,1.0,3.0,91,0.00,,,0.00,WeatherCatV1.23B16,2013-11-27 03:46:00,
2013-11-27 03:51:00,48.1,45.6,30.58,WSW,256,3.0,3.0,91,0.00,,,0.00,WeatherCatV1.23B16,2013-11-27 03:51:00,
2013-11-27 03:56:00,48.1,45.6,30.57,WSW,246,2.0,4.0,91,0.00,,,0.00,WeatherCatV1.23B16,2013-11-27 03:56:00,
2013-11-27 04:01:00,48.1,45.3,30.58,West,264,2.0,2.0,90,0.00,,,0.00,WeatherCatV1.23B16,2013-11-27 04:01:00,
2013-11-27 04:06:00,48.1,45.3,30.57,West,260,2.0,3.0,90,0.00,,,0.00,WeatherCatV1.23B16,2013-11-27 04:06:00,
2013-11-27 04:11:00,48.1,45.3,30.57,West,269,3.0,4.0,90,0.00,,,0.00,WeatherCatV1.23B16,2013-11-27 04:11:00,
2013-11-27 04:16:00,48.2,45.4,30.57,West,277,2.0,4.0,90,0.00,,,0.00,WeatherCatV1.23B16,2013-11-27 04:16:00,
2013-11-27 04:21:00,48.1,45.3,30.57,WNW,290,1.0,1.0,90,0.00,,,0.00,WeatherCatV1.23B16,2013-11-27 04:21:00,
2013-11-27 04:26:00,47.9,45.4,30.57,WNW,291,1.0,1.0,91,0.00,,,0.00,WeatherCatV1.23B16,2013-11-27 04:26:00,
2013-11-27 04:31:00,47.9,45.4,30.57,WNW,284,2.0,3.0,91,0.00,,,0.00,WeatherCatV1.23B16,2013-11-27 04:31:00,
2013-11-27 04:36:00,47.9,45.4,30.57,West,264,1.0,2.0,91,0.00,,,0.00,WeatherCatV1.23B16,2013-11-27 04:36:00,
2013-11-27 04:41:00,47.8,45.3,30.57,WNW,293,2.0,3.0,91,0.00,,,0.00,WeatherCatV1.23B16,2013-11-27 04:41:00,
2013-11-27 04:46:00,47.8,45.3,30.57,West,278,1.0,2.0,91,0.00,,,0.00,WeatherCatV1.23B16,2013-11-27 04:46:00,
2013-11-27 04:51:00,47.8,45.3,30.57,WSW,257,1.0,2.0,91,0.00,,,0.00,WeatherCatV1.23B16,2013-11-27 04:51:00,
2013-11-27 04:56:00,47.8,45.3,30.57,West,266,1.0,2.0,91,0.00,,,0.00,WeatherCatV1.23B16,2013-11-27 04:56:00,
2013-11-27 05:01:00,47.8,45.3,30.57,West,272,2.0,2.0,91,0.00,,,0.00,WeatherCatV1.23B16,2013-11-27 05:01:00,
2013-11-27 05:06:00,47.8,45.3,30.57,WNW,293,2.0,4.0,91,0.00,,,0.00,WeatherCatV1.23B16,2013-11-27 05:06:00,
2013-11-27 05:11:00,47.8,45.3,30.57,West,270,1.0,2.0,91,0.00,,,0.00,WeatherCatV1.23B16,2013-11-27 05:11:00,
2013-11-27 05:16:00,47.9,45.4,30.57,WSW,249,1.0,2.0,91,0.00,,,0.00,WeatherCatV1.23B16,2013-11-27 05:16:00,
2013-11-27 05:21:00,47.9,45.7,30.57,West,271,1.0,2.0,92,0.00,,,0.00,WeatherCatV1.23B16,2013-11-27 05:21:00,
2013-11-27 05:26:00,47.8,45.6,30.57,West,274,1.0,2.0,92,0.00,,,0.00,WeatherCatV1.23B16,2013-11-27 05:26:00,
2013-11-27 05:31:00,47.7,45.5,30.57,WNW,283,1.0,2.0,92,0.00,,,0.00,WeatherCatV1.23B16,2013-11-27 05:31:00,
2013-11-27 05:36:00,47.6,45.4,30.57,West,278,1.0,2.0,92,0.00,,,0.00,WeatherCatV1.23B16,2013-11-27 05:36:00,
2013-11-27 05:41:00,47.6,45.4,30.56,West,281,1.0,2.0,92,0.00,,,0.00,WeatherCatV1.23B16,2013-11-27 05:41:00,
2013-11-27 05:46:00,47.6,45.4,30.56,West,281,1.0,3.0,92,0.00,,,0.00,WeatherCatV1.23B16,2013-11-27 05:46:00,
2013-11-27 05:51:00,47.6,45.4,30.56,WNW,290,1.0,3.0,92,0.00,,,0.00,WeatherCatV1.23B16,2013-11-27 05:51:00,
2013-11-27 05:56:00,47.6,45.4,30.56,WNW,283,2.0,4.0,92,0.00,,,0.00,WeatherCatV1.23B16,2013-11-27 05:56:00,
2013-11-27 06:01:00,47.7,45.2,30.56,WNW,283,3.0,4.0,91,0.00,,,0.00,WeatherCatV1.23B16,2013-11-27 06:01:00,
2013-11-27 06:06:00,47.7,44.9,30.56,WNW,291,3.0,3.0,90,0.00,,,0.00,WeatherCatV1.23B16,2013-11-27 06:06:00,
2013-11-27 06:11:00,47.8,45.0,30.56,WSW,256,1.0,3.0,90,0.00,,,0.00,WeatherCatV1.23B16,2013-11-27 06:11:00,
2013-11-27 06:16:00,47.9,44.8,30.56,West,277,2.0,4.0,89,0.00,,,0.00,WeatherCatV1.23B16,2013-11-27 06:16:00,
2013-11-27 06:21:00,48.0,44.6,30.56,NW,307,3.0,3.0,88,0.00,,,0.00,WeatherCatV1.23B16,2013-11-27 06:21:00,
2013-11-27 06:26:00,48.0,44.6,30.56,West,281,1.0,3.0,88,0.00,,,0.00,WeatherCatV1.23B16,2013-11-27 06:26:00,
2013-11-27 06:31:00,48.0,44.6,30.56,WNW,283,1.0,2.0,88,0.00,,,0.00,WeatherCatV1.23B16,2013-11-27 06:31:00,
2013-11-27 06:36:00,47.9,44.8,30.56,WNW,288,2.0,3.0,89,0.00,,,0.00,WeatherCatV1.23B16,2013-11-27 06:36:00,
2013-11-27 06:41:00,47.9,44.8,30.56,WNW,285,2.0,2.0,89,0.00,,,0.00,WeatherCatV1.23B16,2013-11-27 06:41:00,
2013-11-27 06:46:00,47.8,44.7,30.56,WSW,250,3.0,4.0,89,0.00,,,0.00,WeatherCatV1.23B16,2013-11-27 06:46:00,
2013-11-27 06:51:00,47.8,44.7,30.56,WNW,295,3.0,3.0,89,0.00,,,0.00,WeatherCatV1.23B16,2013-11-27 06:51:00,
2013-11-27 06:56:00,47.9,44.5,30.56,WNW,301,3.0,4.0,88,0.00,,,0.00,WeatherCatV1.23B16,2013-11-27 06:56:00,
2013-11-27 07:01:00,47.9,44.5,30.56,WNW,293,2.0,5.0,88,0.00,,,0.00,WeatherCatV1.23B16,2013-11-27 07:01:00,
2013-11-27 07:06:00,48.0,44.6,30.56,WNW,283,2.0,3.0,88,0.00,,,0.00,WeatherCatV1.23B16,2013-11-27 07:06:00,
2013-11-27 07:11:00,47.9,44.5,30.56,WNW,283,2.0,4.0,88,0.00,,,0.00,WeatherCatV1.23B16,2013-11-27 07:11:00,
2013-11-27 07:16:00,47.8,44.4,30.56,West,276,2.0,3.0,88,0.00,,,0.00,WeatherCatV1.23B16,2013-11-27 07:16:00,
2013-11-27 07:21:00,47.8,44.4,30.56,West,276,1.0,3.0,88,0.00,,,0.00,WeatherCatV1.23B16,2013-11-27 07:21:00,
2013-11-27 07:26:00,47.8,44.4,30.55,West,277,1.0,2.0,88,0.00,,,0.00,WeatherCatV1.23B16,2013-11-27 07:26:00,
2013-11-27 07:31:00,47.7,44.3,30.56,West,276,1.0,2.0,88,0.00,,,0.00,WeatherCatV1.23B16,2013-11-27 07:31:00,
2013-11-27 07:36:00,47.5,44.4,30.56,West,269,2.0,2.0,89,0.00,,,0.00,WeatherCatV1.23B16,2013-11-27 07:36:00,
2013-11-27 07:41:00,47.5,44.4,30.56,West,263,1.0,1.0,89,0.00,,,0.00,WeatherCatV1.23B16,2013-11-27 07:41:00,
2013-11-27 07:46:00,47.6,44.5,30.56,WNW,283,1.0,2.0,89,0.00,,,0.00,WeatherCatV1.23B16,2013-11-27 07:46:00,
2013-11-27 07:51:00,47.6,44.5,30.56,West,270,1.0,3.0,89,0.00,,,0.00,WeatherCatV1.23B16,2013-11-27 07:51:00,
2013-11-27 07:56:00,47.6,44.2,30.56,West,281,1.0,3.0,88,0.00,,,0.00,WeatherCatV1.23B16,2013-11-27 07:56:00,
2013-11-27 08:01:00,47.7,44.3,30.56,West,272,1.0,3.0,88,0.00,,,0.00,WeatherCatV1.23B16,2013-11-27 08:01:00,
2013-11-27 08:06:00,47.7,44.3,30.57,West,274,1.0,1.0,88,0.00,,,0.00,WeatherCatV1.23B16,2013-11-27 08:06:00,
2013-11-27 08:11:00,47.8,44.4,30.57,West,280,1.0,2.0,88,0.00,,,0.00,WeatherCatV1.23B16,2013-11-27 08:11:00,
2013-11-27 08:16:00,47.7,44.3,30.57,NW,312,0.0,2.0,88,0.00,,,0.00,WeatherCatV1.23B16,2013-11-27 08:16:00,
2013-11-27 08:21:00,47.6,44.5,30.57,West,262,1.0,2.0,89,0.00,,,0.00,WeatherCatV1.23B16,2013-11-27 08:21:00,
2013-11-27 08:26:00,47.7,44.3,30.57,WNW,290,1.0,2.0,88,0.00,,,0.00,WeatherCatV1.23B16,2013-11-27 08:26:00,
2013-11-27 08:31:00,47.8,44.4,30.57,West,274,1.0,2.0,88,0.00,,,0.00,WeatherCatV1.23B16,2013-11-27 08:31:00,
2013-11-27 08:36:00,47.8,44.4,30.57,West,276,1.0,1.0,88,0.00,,,0.00,WeatherCatV1.23B16,2013-11-27 08:36:00,
2013-11-27 08:41:00,47.7,44.3,30.57,WNW,293,1.0,2.0,88,0.00,,,0.00,WeatherCatV1.23B16,2013-11-27 08:41:00,
2013-11-27 08:46:00,47.6,44.2,30.57,WNW,293,1.0,1.0,88,0.00,,,0.00,WeatherCatV1.23B16,2013-11-27 08:46:00,
2013-11-27 08:51:00,47.8,44.4,30.57,WNW,282,2.0,3.0,88,0.00,,,0.00,WeatherCatV1.23B16,2013-11-27 08:51:00,
2013-11-27 08:56:00,48.0,44.3,30.57,West,267,2.0,3.0,87,0.00,,,0.00,WeatherCatV1.23B16,2013-11-27 08:56:00,
2013-11-27 09:01:00,48.1,44.4,30.56,West,274,1.0,3.0,87,0.00,,,0.00,WeatherCatV1.23B16,2013-11-27 09:01:00,
2013-11-27 09:06:00,48.3,44.3,30.57,West,277,1.0,4.0,86,0.00,,,0.00,WeatherCatV1.23B16,2013-11-27 09:06:00,
2013-11-27 09:11:00,48.4,44.4,30.57,West,263,2.0,3.0,86,0.00,,,0.00,WeatherCatV1.23B16,2013-11-27 09:11:00,
2013-11-27 09:16:00,48.5,44.2,30.57,West,269,1.0,1.0,85,0.00,,,0.00,WeatherCatV1.23B16,2013-11-27 09:16:00,
2013-11-27 09:21:00,48.4,44.1,30.57,West,276,2.0,2.0,85,0.00,,,0.00,WeatherCatV1.23B16,2013-11-27 09:21:00,
2013-11-27 09:26:00,48.4,44.1,30.57,WSW,255,0.0,1.0,85,0.00,,,0.00,WeatherCatV1.23B16,2013-11-27 09:26:00,
2013-11-27 09:31:00,48.2,44.2,30.57,West,259,0.0,1.0,86,0.00,,,0.00,WeatherCatV1.23B16,2013-11-27 09:31:00,
2013-11-27 09:36:00,48.0,44.3,30.57,West,259,1.0,1.0,87,0.00,,,0.00,WeatherCatV1.23B16,2013-11-27 09:36:00,
2013-11-27 09:41:00,48.0,44.0,30.57,West,271,1.0,2.0,86,0.00,,,0.00,WeatherCatV1.23B16,2013-11-27 09:41:00,
2013-11-27 09:46:00,48.1,44.1,30.57,WNW,293,1.0,2.0,86,0.00,,,0.00,WeatherCatV1.23B16,2013-11-27 09:46:00,
2013-11-27 09:51:00,47.9,43.9,30.57,WNW,285,1.0,2.0,86,0.00,,,0.00,WeatherCatV1.23B16,2013-11-27 09:51:00,
2013-11-27 09:56:00,47.9,43.9,30.57,West,274,0.0,1.0,86,0.00,,,0.00,WeatherCatV1.23B16,2013-11-27 09:56:00,
2013-11-27 10:01:00,48.1,44.1,30.57,West,276,1.0,2.0,86,0.00,,,0.00,WeatherCatV1.23B16,2013-11-27 10:01:00,
2013-11-27 10:06:00,48.4,44.4,30.57,West,264,1.0,2.0,86,0.00,,,0.00,WeatherCatV1.23B16,2013-11-27 10:06:00,
2013-11-27 10:11:00,48.7,44.7,30.57,WNW,290,2.0,2.0,86,0.00,,,0.00,WeatherCatV1.23B16,2013-11-27 10:11:00,
2013-11-27 10:16:00,49.0,44.7,30.57,WNW,284,3.0,4.0,85,0.00,,,0.00,WeatherCatV1.23B16,2013-11-27 10:16:00,
2013-11-27 10:21:00,49.2,44.6,30.57,West,259,1.0,3.0,84,0.00,,,0.00,WeatherCatV1.23B16,2013-11-27 10:21:00,
2013-11-27 10:26:00,49.4,44.8,30.57,West,280,1.0,3.0,84,0.00,,,0.00,WeatherCatV1.23B16,2013-11-27 10:26:00,
2013-11-27 10:31:00,49.7,44.8,30.57,WNW,284,3.0,3.0,83,0.00,,,0.00,WeatherCatV1.23B16,2013-11-27 10:31:00,
2013-11-27 10:36:00,49.8,44.8,30.57,West,270,2.0,3.0,83,0.00,,,0.00,WeatherCatV1.23B16,2013-11-27 10:36:00,
2013-11-27 10:41:00,50.0,45.0,30.57,West,271,2.0,3.0,83,0.00,,,0.00,WeatherCatV1.23B16,2013-11-27 10:41:00,
2013-11-27 10:46:00,50.2,44.9,30.57,West,276,3.0,5.0,82,0.00,,,0.00,WeatherCatV1.23B16,2013-11-27 10:46:00,
2013-11-27 10:51:00,50.3,45.0,30.57,West,263,3.0,4.0,82,0.00,,,0.00,WeatherCatV1.23B16,2013-11-27 10:51:00,
2013-11-27 10:56:00,50.5,45.2,30.57,WNW,283,3.0,3.0,82,0.00,,,0.00,WeatherCatV1.23B16,2013-11-27 10:56:00,
2013-11-27 11:01:00,50.8,45.2,30.57,WNW,302,2.0,3.0,81,0.00,,,0.00,WeatherCatV1.23B16,2013-11-27 11:01:00,
2013-11-27 11:06:00,51.0,45.4,30.57,WNW,301,2.0,3.0,81,0.00,,,0.00,WeatherCatV1.23B16,2013-11-27 11:06:00,
2013-11-27 11:11:00,51.0,45.0,30.57,NNW,332,4.0,5.0,80,0.00,,,0.00,WeatherCatV1.23B16,2013-11-27 11:11:00,
2013-11-27 11:16:00,50.9,45.3,30.57,West,268,2.0,4.0,81,0.00,,,0.00,WeatherCatV1.23B16,2013-11-27 11:16:00,
2013-11-27 11:21:00,51.0,45.0,30.57,West,280,1.0,4.0,80,0.00,,,0.00,WeatherCatV1.23B16,2013-11-27 11:21:00,
2013-11-27 11:26:00,51.2,45.2,30.57,WNW,297,3.0,6.0,80,0.00,,,0.00,WeatherCatV1.23B16,2013-11-27 11:26:00,
2013-11-27 11:31:00,51.4,45.4,30.57,West,274,3.0,4.0,80,0.00,,,0.00,WeatherCatV1.23B16,2013-11-27 11:31:00,
2013-11-27 11:36:00,51.4,45.4,30.57,NNW,340,3.0,5.0,80,0.00,,,0.00,WeatherCatV1.23B16,2013-11-27 11:36:00,
2013-11-27 11:41:00,51.3,45.3,30.57,NW,319,4.0,5.0,80,0.00,,,0.00,WeatherCatV1.23B16,2013-11-27 11:41:00,
2013-11-27 11:46:00,51.3,45.3,30.57,WNW,285,2.0,4.0,80,0.00,,,0.00,WeatherCatV1.23B16,2013-11-27 11:46:00,
2013-11-27 11:51:00,51.3,45.7,30.57,West,278,2.0,4.0,81,0.00,,,0.00,WeatherCatV1.23B16,2013-11-27 11:51:00,
2013-11-27 11:56:00,51.3,45.7,30.57,West,281,1.0,2.0,81,0.00,,,0.00,WeatherCatV1.23B16,2013-11-27 11:56:00,
2013-11-27 12:01:00,51.3,45.7,30.57,West,273,4.0,5.0,81,0.00,,,0.00,WeatherCatV1.23B16,2013-11-27 12:01:00,
2013-11-27 12:06:00,51.3,46.0,30.57,West,277,2.0,2.0,82,0.00,,,0.00,WeatherCatV1.23B16,2013-11-27 12:06:00,
2013-11-27 12:11:00,51.3,46.0,30.56,West,262,2.0,3.0,82,0.00,,,0.00,WeatherCatV1.23B16,2013-11-27 12:11:00,
2013-11-27 12:16:00,51.3,45.7,30.56,WNW,282,3.0,6.0,81,0.00,,,0.00,WeatherCatV1.23B16,2013-11-27 12:16:00,
2013-11-27 12:21:00,51.4,46.1,30.56,West,270,3.0,4.0,82,0.00,,,0.00,WeatherCatV1.23B16,2013-11-27 12:21:00,
2013-11-27 12:26:00,51.4,46.1,30.56,West,269,3.0,4.0,82,0.00,,,0.00,WeatherCatV1.23B16,2013-11-27 12:26:00,
2013-11-27 12:31:00,51.4,46.1,30.56,West,277,2.0,4.0,82,0.00,,,0.00,WeatherCatV1.23B16,2013-11-27 12:31:00,
2013-11-27 12:37:00,51.4,46.1,30.56,West,260,2.0,2.0,82,0.00,,,0.00,WeatherCatV1.23B16,2013-11-27 12:37:00,
2013-11-27 12:42:00,51.4,46.1,30.56,SW,236,3.0,4.0,82,0.00,,,0.00,WeatherCatV1.23B16,2013-11-27 12:42:00,
2013-11-27 12:47:00,51.3,46.0,30.56,West,260,2.0,3.0,82,0.00,,,0.00,WeatherCatV1.23B16,2013-11-27 12:47:00,
2013-11-27 12:52:00,51.4,46.4,30.56,SW,236,4.0,6.0,83,0.00,,,0.00,WeatherCatV1.23B16,2013-11-27 12:52:00,
2013-11-27 12:57:00,51.4,46.1,30.56,WSW,245,2.0,4.0,82,0.00,,,0.00,WeatherCatV1.23B16,2013-11-27 12:57:00,
2013-11-27 13:02:00,51.4,46.4,30.55,West,264,4.0,5.0,83,0.00,,,0.00,WeatherCatV1.23B16,2013-11-27 13:02:00,
2013-11-27 13:07:00,51.4,46.4,30.55,SW,225,2.0,4.0,83,0.00,,,0.00,WeatherCatV1.23B16,2013-11-27 13:07:00,
2013-11-27 13:12:00,51.4,46.4,30.55,West,263,2.0,3.0,83,0.00,,,0.00,WeatherCatV1.23B16,2013-11-27 13:12:00,
2013-11-27 13:17:00,51.3,46.3,30.55,WSW,249,1.0,4.0,83,0.00,,,0.00,WeatherCatV1.23B16,2013-11-27 13:17:00,
2013-11-27 13:22:00,51.3,46.3,30.55,WSW,240,2.0,3.0,83,0.00,,,0.00,WeatherCatV1.23B16,2013-11-27 13:22:00,
2013-11-27 13:27:00,51.4,46.7,30.55,West,264,1.0,3.0,84,0.00,,,0.00,WeatherCatV1.23B16,2013-11-27 13:27:00,
2013-11-27 13:32:00,51.4,46.4,30.55,SW,219,2.0,4.0,83,0.00,,,0.00,WeatherCatV1.23B16,2013-11-27 13:32:00,
2013-11-27 13:37:00,51.4,46.4,30.55,WSW,245,4.0,5.0,83,0.00,,,0.00,WeatherCatV1.23B16,2013-11-27 13:37:00,
2013-11-27 13:42:00,51.4,46.4,30.55,SW,222,3.0,3.0,83,0.00,,,0.00,WeatherCatV1.23B16,2013-11-27 13:42:00,
2013-11-27 13:47:00,51.5,46.8,30.55,SW,229,3.0,4.0,84,0.00,,,0.00,WeatherCatV1.23B16,2013-11-27 13:47:00,
2013-11-27 13:52:00,51.4,46.4,30.55,WSW,238,3.0,4.0,83,0.00,,,0.00,WeatherCatV1.23B16,2013-11-27 13:52:00,
2013-11-27 13:57:00,51.5,46.8,30.55,SW,229,1.0,2.0,84,0.00,,,0.00,WeatherCatV1.23B16,2013-11-27 13:57:00,
2013-11-27 14:02:00,51.6,46.6,30.55,West,270,1.0,2.0,83,0.00,,,0.00,WeatherCatV1.23B16,2013-11-27 14:02:00,
2013-11-27 14:07:00,51.6,46.6,30.55,West,259,0.0,0.0,83,0.00,,,0.00,WeatherCatV1.23B16,2013-11-27 14:07:00,
2013-11-27 14:12:00,51.7,46.7,30.55,WSW,253,0.0,1.0,83,0.00,,,0.00,WeatherCatV1.23B16,2013-11-27 14:12:00,
2013-11-27 14:17:00,51.7,47.0,30.55,WSW,257,3.0,4.0,84,0.00,,,0.00,WeatherCatV1.23B16,2013-11-27 14:17:00,
2013-11-27 14:22:00,51.8,47.1,30.55,WSW,248,3.0,3.0,84,0.00,,,0.00,WeatherCatV1.23B16,2013-11-27 14:22:00,
2013-11-27 14:27:00,51.8,46.8,30.55,West,277,2.0,2.0,83,0.00,,,0.00,WeatherCatV1.23B16,2013-11-27 14:27:00,
2013-11-27 14:32:00,51.8,46.8,30.55,WSW,248,3.0,6.0,83,0.00,,,0.00,WeatherCatV1.23B16,2013-11-27 14:32:00,
2013-11-27 14:37:00,51.9,46.9,30.54,West,269,3.0,6.0,83,0.00,,,0.00,WeatherCatV1.23B16,2013-11-27 14:37:00,
2013-11-27 14:42:00,51.9,47.2,30.54,SW,236,5.0,5.0,84,0.00,,,0.00,WeatherCatV1.23B16,2013-11-27 14:42:00,
2013-11-27 14:47:00,51.8,47.1,30.54,SW,228,2.0,3.0,84,0.00,,,0.00,WeatherCatV1.23B16,2013-11-27 14:47:00,
2013-11-27 14:52:00,51.8,47.1,30.54,WSW,240,2.0,4.0,84,0.00,,,0.00,WeatherCatV1.23B16,2013-11-27 14:52:00,
2013-11-27 14:57:00,51.8,47.4,30.54,SW,232,2.0,2.0,85,0.00,,,0.00,WeatherCatV1.23B16,2013-11-27 14:57:00,
2013-11-27 15:02:00,51.8,47.4,30.54,WSW,256,1.0,3.0,85,0.00,,,0.00,WeatherCatV1.23B16,2013-11-27 15:02:00,
2013-11-27 15:07:00,51.7,47.3,30.54,WSW,246,3.0,3.0,85,0.00,,,0.00,WeatherCatV1.23B16,2013-11-27 15:07:00,
2013-11-27 15:12:00,51.7,47.3,30.54,WSW,256,2.0,4.0,85,0.00,,,0.00,WeatherCatV1.23B16,2013-11-27 15:12:00,
2013-11-27 15:17:00,51.7,47.3,30.54,West,274,1.0,3.0,85,0.00,,,0.00,WeatherCatV1.23B16,2013-11-27 15:17:00,
2013-11-27 15:22:00,51.7,47.3,30.54,West,274,2.0,3.0,85,0.00,,,0.00,WeatherCatV1.23B16,2013-11-27 15:22:00,
2013-11-27 15:27:00,51.6,47.2,30.54,West,273,2.0,3.0,85,0.00,,,0.00,WeatherCatV1.23B16,2013-11-27 15:27:00,
2013-11-27 15:32:00,51.6,47.2,30.54,West,267,1.0,2.0,85,0.00,,,0.00,WeatherCatV1.23B16,2013-11-27 15:32:00,
2013-11-27 15:37:00,51.5,47.1,30.54,West,262,1.0,3.0,85,0.00,,,0.00,WeatherCatV1.23B16,2013-11-27 15:37:00,
2013-11-27 15:42:00,51.4,47.0,30.54,West,274,1.0,2.0,85,0.00,,,0.00,WeatherCatV1.23B16,2013-11-27 15:42:00,
2013-11-27 15:47:00,51.4,47.3,30.54,WSW,250,0.0,1.0,86,0.00,,,0.00,WeatherCatV1.23B16,2013-11-27 15:47:00,
2013-11-27 15:52:00,51.3,47.2,30.54,West,263,1.0,3.0,86,0.00,,,0.00,WeatherCatV1.23B16,2013-11-27 15:52:00,
2013-11-27 15:57:00,51.2,47.2,30.54,WNW,287,1.0,2.0,86,0.00,,,0.00,WeatherCatV1.23B16,2013-11-27 15:57:00,
2013-11-27 16:02:00,51.1,47.1,30.54,West,279,1.0,3.0,86,0.00,,,0.00,WeatherCatV1.23B16,2013-11-27 16:02:00,
2013-11-27 16:07:00,51.0,47.3,30.54,WNW,288,1.0,1.0,87,0.00,,,0.00,WeatherCatV1.23B16,2013-11-27 16:07:00,
2013-11-27 16:12:00,50.9,47.2,30.54,West,274,1.0,2.0,87,0.00,,,0.00,WeatherCatV1.23B16,2013-11-27 16:12:00,
2013-11-27 16:17:00,50.9,47.2,30.54,West,276,0.0,3.0,87,0.00,,,0.00,WeatherCatV1.23B16,2013-11-27 16:17:00,
2013-11-27 16:22:00,50.8,47.1,30.55,West,277,1.0,2.0,87,0.00,,,0.00,WeatherCatV1.23B16,2013-11-27 16:22:00,
2013-11-27 16:27:00,50.8,47.1,30.54,West,281,0.0,2.0,87,0.00,,,0.00,WeatherCatV1.23B16,2013-11-27 16:27:00,
2013-11-27 16:32:00,50.7,47.0,30.55,WNW,283,0.0,1.0,87,0.00,,,0.00,WeatherCatV1.23B16,2013-11-27 16:32:00,
2013-11-27 16:37:00,50.5,47.1,30.55,West,274,2.0,3.0,88,0.00,,,0.00,WeatherCatV1.23B16,2013-11-27 16:37:00,
2013-11-27 16:42:00,50.5,46.8,30.55,West,274,1.0,1.0,87,0.00,,,0.00,WeatherCatV1.23B16,2013-11-27 16:42:00,
2013-11-27 16:47:00,50.4,46.7,30.55,West,277,2.0,3.0,87,0.00,,,0.00,WeatherCatV1.23B16,2013-11-27 16:47:00,
2013-11-27 16:52:00,50.4,46.7,30.55,West,259,0.0,1.0,87,0.00,,,0.00,WeatherCatV1.23B16,2013-11-27 16:52:00,
2013-11-27 16:57:00,50.4,46.7,30.55,West,259,1.0,1.0,87,0.00,,,0.00,WeatherCatV1.23B16,2013-11-27 16:57:00,
2013-11-27 17:02:00,50.3,46.6,30.55,West,277,1.0,1.0,87,0.00,,,0.00,WeatherCatV1.23B16,2013-11-27 17:02:00,
2013-11-27 17:07:00,50.2,46.5,30.55,West,271,2.0,2.0,87,0.00,,,0.00,WeatherCatV1.23B16,2013-11-27 17:07:00,
2013-11-27 17:12:00,50.2,46.5,30.55,WNW,301,1.0,3.0,87,0.00,,,0.00,WeatherCatV1.23B16,2013-11-27 17:12:00,
2013-11-27 17:17:00,50.2,46.5,30.55,West,277,2.0,3.0,87,0.00,,,0.00,WeatherCatV1.23B16,2013-11-27 17:17:00,
2013-11-27 17:22:00,50.1,46.4,30.55,West,277,2.0,2.0,87,0.00,,,0.00,WeatherCatV1.23B16,2013-11-27 17:22:00,
2013-11-27 17:27:00,50.0,46.3,30.55,WNW,290,3.0,3.0,87,0.00,,,0.00,WeatherCatV1.23B16,2013-11-27 17:27:00,
2013-11-27 17:32:00,50.1,46.1,30.55,WNW,297,2.0,3.0,86,0.00,,,0.00,WeatherCatV1.23B16,2013-11-27 17:32:00,
2013-11-27 17:37:00,50.0,46.0,30.56,West,278,2.0,3.0,86,0.00,,,0.00,WeatherCatV1.23B16,2013-11-27 17:37:00,
2013-11-27 17:42:00,50.0,46.0,30.56,WNW,297,1.0,3.0,86,0.00,,,0.00,WeatherCatV1.23B16,2013-11-27 17:42:00,
2013-11-27 17:47:00,49.9,45.9,30.56,NW,307,1.0,1.0,86,0.00,,,0.00,WeatherCatV1.23B16,2013-11-27 17:47:00,
2013-11-27 17:52:00,49.8,45.8,30.56,WNW,287,3.0,4.0,86,0.00,,,0.00,WeatherCatV1.23B16,2013-11-27 17:52:00,
2013-11-27 17:57:00,49.9,45.9,30.56,West,266,2.0,2.0,86,0.00,,,0.00,WeatherCatV1.23B16,2013-11-27 17:57:00,
2013-11-27 18:02:00,49.9,45.9,30.56,WNW,295,1.0,2.0,86,0.00,,,0.00,WeatherCatV1.23B16,2013-11-27 18:02:00,
2013-11-27 18:07:00,49.9,45.6,30.56,WNW,283,2.0,3.0,85,0.00,,,0.00,WeatherCatV1.23B16,2013-11-27 18:07:00,
2013-11-27 18:12:00,49.9,45.6,30.56,WNW,288,1.0,2.0,85,0.00,,,0.00,WeatherCatV1.23B16,2013-11-27 18:12:00,
2013-11-27 18:17:00,49.8,45.5,30.56,West,277,0.0,1.0,85,0.00,,,0.00,WeatherCatV1.23B16,2013-11-27 18:17:00,
2013-11-27 18:22:00,49.7,45.4,30.56,WNW,294,2.0,3.0,85,0.00,,,0.00,WeatherCatV1.23B16,2013-11-27 18:22:00,
2013-11-27 18:27:00,49.8,45.2,30.56,NW,309,2.0,3.0,84,0.00,,,0.00,WeatherCatV1.23B16,2013-11-27 18:27:00,
2013-11-27 18:32:00,49.7,45.1,30.56,WNW,293,0.0,1.0,84,0.00,,,0.00,WeatherCatV1.23B16,2013-11-27 18:32:00,
2013-11-27 18:37:00,49.7,45.1,30.56,WNW,299,1.0,1.0,84,0.00,,,0.00,WeatherCatV1.23B16,2013-11-27 18:37:00,
2013-11-27 18:42:00,49.6,45.0,30.56,WNW,282,0.0,1.0,84,0.00,,,0.00,WeatherCatV1.23B16,2013-11-27 18:42:00,
2013-11-27 18:49:00,49.7,45.1,30.56,West,274,0.0,0.0,84,0.00,,,0.00,WeatherCatV1.23B16,2013-11-27 18:49:00,
2013-11-27 18:54:00,49.6,45.0,30.56,West,274,0.0,0.0,84,0.00,,,0.00,WeatherCatV1.23B16,2013-11-27 18:54:00,
2013-11-27 18:56:00,49.5,44.9,30.55,West,280,1.0,1.0,84,0.00,,,0.00,WeatherCatV1.23B16,2013-11-27 18:56:00,
2013-11-27 19:01:00,49.5,45.2,30.56,West,274,1.0,3.0,85,0.00,,,0.00,WeatherCatV1.23B16,2013-11-27 19:01:00,
2013-11-27 19:06:00,49.4,45.1,30.56,West,259,2.0,2.0,85,0.00,,,0.00,WeatherCatV1.23B16,2013-11-27 19:06:00,
2013-11-27 19:11:00,49.6,45.3,30.56,WNW,283,0.0,2.0,85,0.00,,,0.00,WeatherCatV1.23B16,2013-11-27 19:11:00,
2013-11-27 19:16:00,49.5,45.2,30.56,West,260,1.0,1.0,85,0.00,,,0.00,WeatherCatV1.23B16,2013-11-27 19:16:00,
2013-11-27 19:21:00,49.5,45.2,30.56,West,264,1.0,2.0,85,0.00,,,0.00,WeatherCatV1.23B16,2013-11-27 19:21:00,
2013-11-27 19:26:00,49.5,45.2,30.56,West,273,2.0,2.0,85,0.00,,,0.00,WeatherCatV1.23B16,2013-11-27 19:26:00,
2013-11-27 19:31:00,49.5,45.5,30.56,West,277,1.0,2.0,86,0.00,,,0.00,WeatherCatV1.23B16,2013-11-27 19:31:00,
2013-11-27 19:36:00,49.6,45.6,30.56,WNW,284,1.0,2.0,86,0.00,,,0.00,WeatherCatV1.23B16,2013-11-27 19:36:00,
2013-11-27 19:41:00,49.6,45.6,30.56,WNW,287,0.0,0.0,86,0.00,,,0.00,WeatherCatV1.23B16,2013-11-27 19:41:00,
2013-11-27 19:46:00,49.4,45.7,30.56,WNW,288,2.0,3.0,87,0.00,,,0.00,WeatherCatV1.23B16,2013-11-27 19:46:00,
2013-11-27 19:51:00,49.4,45.7,30.56,West,273,1.0,2.0,87,0.00,,,0.00,WeatherCatV1.23B16,2013-11-27 19:51:00,
2013-11-27 19:56:00,49.5,45.8,30.56,West,260,1.0,1.0,87,0.00,,,0.00,WeatherCatV1.23B16,2013-11-27 19:56:00,
2013-11-27 20:01:00,49.5,45.8,30.56,WNW,294,0.0,1.0,87,0.00,,,0.00,WeatherCatV1.23B16,2013-11-27 20:01:00,
2013-11-27 20:06:00,49.5,46.1,30.56,West,267,1.0,2.0,88,0.00,,,0.00,WeatherCatV1.23B16,2013-11-27 20:06:00,
2013-11-27 20:11:00,49.5,46.1,30.56,West,277,2.0,2.0,88,0.00,,,0.00,WeatherCatV1.23B16,2013-11-27 20:11:00,
2013-11-27 20:16:00,49.5,46.1,30.56,WNW,282,1.0,2.0,88,0.00,,,0.00,WeatherCatV1.23B16,2013-11-27 20:16:00,
2013-11-27 20:21:00,49.5,46.1,30.56,West,271,1.0,2.0,88,0.00,,,0.00,WeatherCatV1.23B16,2013-11-27 20:21:00,
2013-11-27 20:26:00,49.5,46.4,30.56,West,263,1.0,4.0,89,0.00,,,0.00,WeatherCatV1.23B16,2013-11-27 20:26:00,
2013-11-27 20:31:00,49.5,46.4,30.56,West,264,1.0,2.0,89,0.00,,,0.00,WeatherCatV1.23B16,2013-11-27 20:31:00,
2013-11-27 20:36:00,49.5,46.4,30.56,West,278,1.0,3.0,89,0.00,,,0.00,WeatherCatV1.23B16,2013-11-27 20:36:00,
2013-11-27 20:41:00,49.5,46.4,30.56,West,274,1.0,3.0,89,0.00,,,0.00,WeatherCatV1.23B16,2013-11-27 20:41:00,
2013-11-27 20:46:00,49.5,46.7,30.55,WNW,299,1.0,4.0,90,0.00,,,0.00,WeatherCatV1.23B16,2013-11-27 20:46:00,
2013-11-27 20:51:00,49.6,46.8,30.55,WNW,282,1.0,3.0,90,0.00,,,0.00,WeatherCatV1.23B16,2013-11-27 20:51:00,
2013-11-27 20:56:00,49.6,46.8,30.55,West,274,1.0,4.0,90,0.00,,,0.00,WeatherCatV1.23B16,2013-11-27 20:56:00,
2013-11-27 21:01:00,49.5,46.7,30.55,West,274,1.0,2.0,90,0.00,,,0.00,WeatherCatV1.23B16,2013-11-27 21:01:00,
2013-11-27 21:06:00,49.5,46.7,30.55,West,281,1.0,4.0,90,0.00,,,0.00,WeatherCatV1.23B16,2013-11-27 21:06:00,
2013-11-27 21:11:00,49.5,46.7,30.56,West,278,1.0,3.0,90,0.00,,,0.00,WeatherCatV1.23B16,2013-11-27 21:11:00,
2013-11-27 21:16:00,49.5,46.7,30.56,WNW,290,2.0,2.0,90,0.00,,,0.00,WeatherCatV1.23B16,2013-11-27 21:16:00,
2013-11-27 21:21:00,49.5,46.7,30.56,WNW,285,1.0,3.0,90,0.00,,,0.00,WeatherCatV1.23B16,2013-11-27 21:21:00,
2013-11-27 21:26:00,49.5,46.7,30.56,West,266,1.0,3.0,90,0.00,,,0.00,WeatherCatV1.23B16,2013-11-27 21:26:00,
2013-11-27 21:31:00,49.5,46.7,30.56,NW,307,2.0,2.0,90,0.00,,,0.00,WeatherCatV1.23B16,2013-11-27 21:31:00,
2013-11-27 21:36:00,49.5,46.7,30.56,WNW,284,0.0,3.0,90,0.00,,,0.00,WeatherCatV1.23B16,2013-11-27 21:36:00,
2013-11-27 21:41:00,49.5,47.0,30.56,West,276,3.0,4.0,91,0.00,,,0.00,WeatherCatV1.23B16,2013-11-27 21:41:00,
2013-11-27 21:46:00,49.6,47.1,30.56,NW,304,3.0,4.0,91,0.00,,,0.00,WeatherCatV1.23B16,2013-11-27 21:46:00,
2013-11-27 21:51:00,49.6,46.8,30.56,WNW,288,1.0,1.0,90,0.00,,,0.00,WeatherCatV1.23B16,2013-11-27 21:51:00,
2013-11-27 21:56:00,49.5,46.7,30.57,WNW,294,0.0,1.0,90,0.00,,,0.00,WeatherCatV1.23B16,2013-11-27 21:56:00,
2013-11-27 22:01:00,49.5,47.0,30.56,WNW,294,0.0,1.0,91,0.00,,,0.00,WeatherCatV1.23B16,2013-11-27 22:01:00,
2013-11-27 22:06:00,49.3,46.8,30.56,WNW,295,1.0,1.0,91,0.00,,,0.00,WeatherCatV1.23B16,2013-11-27 22:06:00,
2013-11-27 22:11:00,49.3,46.8,30.56,NW,309,0.0,1.0,91,0.00,,,0.00,WeatherCatV1.23B16,2013-11-27 22:11:00,
2013-11-27 22:16:00,49.3,46.8,30.56,WNW,283,2.0,2.0,91,0.00,,,0.00,WeatherCatV1.23B16,2013-11-27 22:16:00,
2013-11-27 22:21:00,49.4,46.9,30.56,NNW,330,1.0,3.0,91,0.00,,,0.00,WeatherCatV1.23B16,2013-11-27 22:21:00,
2013-11-27 22:26:00,49.4,46.9,30.56,NW,326,0.0,1.0,91,0.00,,,0.00,WeatherCatV1.23B16,2013-11-27 22:26:00,
2013-11-27 22:31:00,49.3,46.8,30.56,WNW,288,0.0,1.0,91,0.00,,,0.00,WeatherCatV1.23B16,2013-11-27 22:31:00,
2013-11-27 22:36:00,49.3,46.8,30.56,WNW,288,0.0,0.0,91,0.00,,,0.00,WeatherCatV1.23B16,2013-11-27 22:36:00,
2013-11-27 22:41:00,49.3,46.8,30.56,North,5,0.0,1.0,91,0.00,,,0.00,WeatherCatV1.23B16,2013-11-27 22:41:00,
2013-11-27 22:46:00,49.3,46.8,30.56,North,5,0.0,1.0,91,0.00,,,0.00,WeatherCatV1.23B16,2013-11-27 22:46:00,
2013-11-27 22:51:00,49.3,46.8,30.56,East,91,0.0,2.0,91,0.00,,,0.00,WeatherCatV1.23B16,2013-11-27 22:51:00,
2013-11-27 22:56:00,49.3,46.8,30.56,East,91,0.0,0.0,91,0.00,,,0.00,WeatherCatV1.23B16,2013-11-27 22:56:00,
2013-11-27 23:01:00,49.2,46.7,30.56,East,91,0.0,0.0,91,0.00,,,0.00,WeatherCatV1.23B16,2013-11-27 23:01:00,
2013-11-27 23:06:00,49.0,46.5,30.56,East,90,0.0,0.0,91,0.00,,,0.00,WeatherCatV1.23B16,2013-11-27 23:06:00,
2013-11-27 23:11:00,48.9,46.4,30.56,East,90,0.0,0.0,91,0.00,,,0.00,WeatherCatV1.23B16,2013-11-27 23:11:00,
2013-11-27 23:16:00,48.8,46.3,30.56,East,90,0.0,0.0,91,0.00,,,0.00,WeatherCatV1.23B16,2013-11-27 23:16:00,
2013-11-27 23:21:00,48.6,46.4,30.56,East,91,0.0,0.0,92,0.00,,,0.00,WeatherCatV1.23B16,2013-11-27 23:21:00,
2013-11-27 23:26:00,48.5,46.3,30.55,East,91,0.0,0.0,92,0.00,,,0.00,WeatherCatV1.23B16,2013-11-27 23:26:00,
2013-11-27 23:31:00,48.5,46.3,30.55,East,90,1.0,1.0,92,0.00,,,0.00,WeatherCatV1.23B16,2013-11-27 23:31:00,
2013-11-27 23:36:00,48.4,46.2,30.55,East,92,0.0,0.0,92,0.00,,,0.00,WeatherCatV1.23B16,2013-11-27 23:36:00,
2013-11-27 23:41:00,48.3,46.1,30.55,East,91,0.0,1.0,92,0.00,,,0.00,WeatherCatV1.23B16,2013-11-27 23:41:00,
2013-11-27 23:46:00,48.4,46.5,30.55,SSE,155,0.0,1.0,93,0.00,,,0.00,WeatherCatV1.23B16,2013-11-27 23:46:00,
2013-11-27 23:51:00,48.5,46.6,30.55,NNE,13,0.0,1.0,93,0.00,,,0.00,WeatherCatV1.23B16,2013-11-27 23:51:00,
2013-11-27 23:56:00,48.6,46.4,30.55,SW,232,2.0,2.0,92,0.00,,,0.00,WeatherCatV1.23B16,2013-11-27 23:56:00,